Location: Unspecified
(0.0000°N, 0.0000°E)
Time: 10:38:04
(UTC+01:00)

SJ-6B - Visible Passes

Search period start: 28 November 2014 00:00
Search period end: 08 December 2014 00:00
Orbit: 518 x 596 km, 97.8° (Epoch: 27 November)

Date Brightness Start Highest point End Pass type
(mag) Time Alt. Az. Time Alt. Az. Time Alt. Az.
28 Nov 4.3 19:19:34 10° S 19:23:11 41° WSW 19:26:44 10° NNW visible
29 Nov 4.1 19:17:25 10° S 19:21:04 44° WSW 19:24:40 10° NNW visible
30 Nov 3.9 19:15:15 10° S 19:18:57 48° WSW 19:22:34 10° NNW visible
01 Dec 3.7 19:13:05 10° S 19:16:48 53° WSW 19:20:28 10° NNW visible
02 Dec 3.5 19:10:55 10° S 19:14:39 58° WSW 19:18:20 10° NNW visible
